Theta_e
322 323 321 321 322 321 321 321 321 322 321 321 321 321 320 320 318 317 316 318 324 327 324 322 320 319 318 316 315 314 314 314 313 313 315 314 313 312 310 311 311 311 311
322 322 321 321 320 320 320 321 320 320 320 321 321 321 320 320 319 316 316 317 322 325 325 323 322 320 319 318 316 315 315 314 313 313 313 313 312 311 309 309 310 309 310
322 320 319 319 319 320 320 320 320 319 319 321 320 321 321 321 320 316 315 315 318 320 323 324 323 322 320 319 318 317 316 315 314 314 314 313 312 311 310 309 308 308 308
322 319 317 318 319 319 319 318 318 317 317 318 318 319 322 321 320 318 315 314 315 317 319 323 323 322 322 321 320 320 318 317 316 315 315 315 314 313 311 310 309 308 306
324 320 317 317 319 318 317 318 317 317 316 317 318 320 320 320 320 320 316 315 314 314 314 318 320 320 321 321 320 321 321 319 318 316 316 315 315 315 313 312 310 309 308
322 320 319 318 318 317 316 316 316 317 317 317 319 319 320 320 320 320 318 317 315 314 314 314 313 312 317 319 320 321 322 322 320 318 317 315 315 315 314 313 312 310 309
322 320 321 320 318 317 317 317 317 316 317 319 318 318 318 319 320 318 318 316 315 315 314 313 312 310 310 317 318 319 321 322 322 320 318 317 316 315 315 314 313 312 311
322 322 322 322 321 318 318 318 318 317 317 319 314 314 311 311 314 317 316 316 315 315 314 313 312 310 308 307 308 316 319 321 322 322 320 319 317 315 316 315 314 313 311
322 322 323 323 322 321 319 318 319 318 315 317 318 315 310 306 309 313 314 315 315 313 313 313 312 310 308 306 309 311 315 316 319 321 321 321 320 317 316 316 315 314 313
323 323 323 324 323 323 321 320 320 320 318 316 316 319 318 314 307 305 310 311 313 313 313 312 312 310 308 306 305 304 307 313 314 316 318 319 320 320 318 317 316 315 314
324 323 323 323 323 324 323 322 319 320 320 319 315 313 314 317 316 313 309 311 310 311 311 311 311 311 308 306 303 303 307 309 310 312 314 314 316 319 320 317 317 316 315
324 324 323 322 323 323 323 323 323 321 321 321 320 317 314 311 310 310 311 310 311 312 313 312 309 310 312 307 304 302 305 307 309 309 309 309 310 314 317 318 318 316 315
323 323 323 322 322 323 324 324 323 323 323 321 320 319 319 317 316 315 314 312 310 312 313 311 311 311 309 305 305 299 300 304 306 307 307 307 308 309 311 314 315 315 314
325 325 324 323 323 324 324 324 324 323 323 322 321 320 320 319 319 318 316 313 310 310 309 310 308 305 307 304 303 297 298 300 302 303 305 306 307 307 309 310 311 312 311
327 326 325 323 323 323 323 323 323 322 322 321 322 322 321 322 320 318 318 317 313 307 307 309 307 302 301 300 298 298 297 297 299 301 302 303 305 307 308 308 309 310 310
327 326 325 324 323 323 323 322 322 322 321 322 322 320 320 320 318 317 317 317 316 313 309 311 306 303 300 298 297 296 296 295 297 298 299 300 302 304 306 306 308 307 308
327 326 325 324 324 323 323 322 322 321 321 321 320 318 318 318 317 316 316 316 315 315 310 309 303 299 297 297 296 295 294 293 294 296 297 298 299 300 303 303 306 305 305
327 326 326 324 323 323 323 322 322 322 320 319 318 316 316 315 315 316 315 315 314 314 311 308 300 295 295 295 295 293 292 293 291 294 295 297 297 298 299 301 303 303 303
325 326 325 324 324 324 322 322 323 322 320 318 317 315 315 314 313 314 314 313 310 305 304 300 298 294 293 292 289 290 289 288 290 292 294 295 295 296 298 299 301 301 300
324 324 325 325 323 323 322 321 321 321 319 317 315 315 315 314 313 311 310 307 303 300 297 292 289 290 290 287 287 287 286 286 286 288 290 291 292 293 294 296 297 297 298
323 324 323 322 321 320 319 317 316 318 317 313 311 312 311 307 302 305 305 301 300 294 289 289 287 287 287 286 286 286 285 285 286 286 285 285 285 287 289 292 293 294 295
320 320 319 320 318 312 303 304 310 313 311 309 307 303 302 293 297 298 298 298 299 297 290 290 288 288 288 288 286 285 285 284 285 285 284 280 282 284 285 285 291 293 294
311 311 313 313 313 309 301 302 301 311 310 309 304 300 296 295 293 295 295 295 294 296 296 293 289 289 287 287 286 285 285 285 285 283 282 282 281 284 282 285 291 292 293
306 305 304 308 310 306 299 299 297 307 306 304 302 299 296 293 293 291 290 289 288 289 291 291 290 289 289 287 287 287 286 285 284 283 284 282 277 279 280 281 290 292 292
298 300 299 300 301 297 296 296 298 298 295 293 294 295 294 291 291 292 288 286 286 286 291 292 292 292 292 291 288 286 284 284 282 283 283 281 278 278 278 277 279 289 289
299 295 292 297 294 294 294 295 297 294 290 289 287 288 288 290 291 292 288 287 286 285 286 286 286 288 289 288 290 286 285 284 284 282 281 278 277 276 275 276 277 277 278
Wind_Speed
5 4 5 5 5 5 4 4 4 3 4 4 3 3 3 0 1 1 2 7 5 5 4 3 4 4 4 4 3 3 2 3 2 1 5 5 4 4 3 4 5 5 8
5 4 4 5 4 4 4 5 4 5 4 4 4 4 4 4 3 2 1 3 7 5 6 6 5 5 5 5 4 4 4 4 5 4 5 5 5 5 3 2 3 3 6
7 6 5 4 5 5 6 4 3 3 3 3 5 5 3 4 3 4 3 2 5 8 9 10 8 7 7 7 8 7 7 7 7 8 8 7 6 5 5 3 2 2 3
7 6 5 5 5 4 4 3 3 3 4 4 4 4 4 5 6 5 4 4 4 4 8 11 11 10 10 10 11 11 11 10 10 10 11 12 12 11 10 7 5 4 3
7 6 5 5 6 4 4 4 4 4 4 4 4 4 4 4 4 4 6 6 6 5 3 9 12 12 13 14 14 14 14 14 14 15 15 15 14 13 12 11 10 9 8
8 6 5 6 6 5 5 4 5 4 4 4 4 4 4 4 4 4 6 6 6 6 6 6 5 6 12 15 16 16 17 17 17 17 16 15 15 15 14 12 11 10 9
10 8 5 7 6 6 6 6 5 6 5 3 1 1 2 4 6 6 5 5 5 6 6 6 5 5 4 16 17 18 19 19 19 20 18 18 17 16 16 15 14 14 12
12 11 10 7 8 6 7 7 6 4 4 5 4 1 3 4 6 8 5 5 7 5 6 8 7 6 5 4 8 18 21 21 21 21 19 19 19 17 19 18 17 16 14
12 12 12 10 8 8 8 7 7 8 5 4 7 5 3 5 2 2 6 5 6 5 5 6 7 7 6 6 8 11 18 21 22 22 20 20 21 20 20 20 19 18 18
13 13 13 13 10 8 9 10 8 7 6 6 2 7 8 2 1 4 2 3 5 7 7 5 5 6 7 7 9 10 11 16 17 21 21 22 21 22 22 20 20 21 19
15 15 15 13 13 10 11 11 7 11 8 8 4 3 5 6 6 4 8 4 3 4 5 5 6 5 7 8 6 9 14 17 18 17 17 20 22 23 23 23 22 23 22
12 16 16 15 15 13 13 11 11 9 11 9 8 6 6 5 6 6 8 9 8 6 6 6 5 5 7 7 8 12 15 17 18 17 18 22 25 24 23 21 23 24 22
11 16 18 16 14 15 14 13 12 13 13 11 12 10 8 9 6 5 7 6 6 4 4 4 5 7 4 4 6 10 10 14 16 17 19 22 23 24 24 24 24 23 22
14 16 17 17 18 16 15 13 10 11 13 12 15 12 9 8 7 8 8 7 6 5 4 6 4 5 3 2 4 8 4 9 14 16 19 20 22 24 24 24 24 22 20
13 15 17 18 17 17 16 15 12 13 13 12 12 12 11 9 7 5 6 8 8 5 4 4 5 2 3 3 4 3 3 5 10 14 16 17 20 23 23 23 26 23 22
16 15 16 17 17 17 17 16 14 13 14 12 10 12 11 9 6 5 6 7 7 8 6 4 5 3 2 2 3 3 3 5 8 12 14 15 18 21 22 21 24 21 24
16 17 16 17 18 17 16 16 16 14 15 14 12 12 12 10 8 7 6 7 8 8 9 3 2 2 3 2 1 1 3 4 3 9 11 14 17 19 19 20 22 21 21
16 16 16 16 17 17 17 17 18 15 16 14 14 12 13 8 11 9 8 10 9 8 7 8 3 3 3 3 2 3 3 3 4 7 10 11 14 16 18 18 18 17 18
17 16 16 18 18 18 17 17 17 17 15 14 13 13 13 11 11 9 9 8 6 4 3 3 3 2 2 2 2 1 2 4 3 8 9 10 12 13 14 16 16 14 15
16 16 16 17 17 16 15 15 15 16 13 12 12 12 12 12 12 10 9 8 5 4 3 2 2 2 2 1 1 2 2 2 2 3 5 6 8 9 13 13 14 10 10
14 15 15 14 13 13 11 13 12 14 13 10 10 11 10 11 11 10 7 6 6 4 2 3 2 2 2 1 2 1 2 2 2 1 0 2 2 3 4 8 7 9 12
14 13 13 14 12 8 12 14 13 11 10 10 10 7 6 7 8 11 9 8 8 6 5 4 3 3 4 3 2 2 2 1 1 1 1 2 3 3 3 3 11 15 18
9 9 10 11 12 9 15 18 18 11 12 11 10 9 7 4 7 7 8 7 5 6 4 5 5 5 4 5 5 4 4 4 3 1 1 2 2 2 3 5 12 14 15
11 9 8 10 11 10 17 17 17 11 10 10 10 11 11 10 7 8 8 6 5 4 4 3 5 6 5 6 5 4 3 2 1 3 2 1 1 2 3 3 9 10 12
7 8 6 10 12 9 16 17 16 9 8 8 7 8 10 9 13 14 9 8 6 4 5 8 8 10 10 10 7 4 3 3 2 2 3 3 2 2 2 3 2 4 5
9 6 7 11 11 11 17 20 14 8 9 7 5 6 10 10 16 16 10 10 9 7 7 5 4 6 6 4 10 3 3 3 2 2 2 3 1 2 4 2 1 1 2
Wind_Direction
173 197 175 180 184 181 210 195 199 180 223 200 199 220 187 155 120 87 162 174 224 219 198 183 178 180 175 168 156 145 136 125 123 139 125 121 114 101 97 99 87 75 82
176 197 192 180 187 190 206 199 198 195 204 184 208 221 216 201 199 134 115 195 195 238 228 231 221 219 213 202 201 198 188 190 194 209 171 173 161 168 158 130 114 111 101
177 188 191 186 194 193 202 207 220 190 196 198 211 201 213 229 225 190 214 222 205 209 224 240 240 237 235 230 218 215 217 210 208 212 212 201 202 204 197 202 172 143 136
186 185 181 187 200 191 189 185 197 206 218 210 207 216 191 205 214 219 211 225 235 217 222 223 230 236 237 239 231 222 221 220 221 222 221 214 209 201 206 197 194 192 213
200 174 185 190 194 188 186 194 211 184 202 227 214 230 225 216 224 203 217 224 227 233 225 220 219 221 229 236 236 233 227 225 225 223 221 222 220 216 206 204 203 207 215
190 192 185 193 184 180 196 197 197 212 194 202 213 234 239 237 234 236 221 221 224 214 221 230 211 221 225 233 241 240 235 229 228 231 234 231 231 230 224 214 210 219 232
192 195 191 190 184 183 195 198 196 205 226 211 141 239 275 249 244 230 215 215 241 225 211 213 214 210 217 230 239 247 249 242 237 232 230 232 233 232 234 221 221 223 221
191 196 195 198 188 185 196 203 190 194 209 188 176 214 275 290 252 238 215 217 227 226 219 217 218 213 204 208 223 241 247 250 247 247 236 235 237 230 240 228 225 226 227
194 193 194 200 197 186 199 201 197 190 197 209 195 171 207 233 248 234 215 211 220 227 231 224 221 206 197 214 224 231 240 248 251 254 247 246 239 228 238 242 235 232 231
196 198 196 199 202 197 197 203 200 201 176 197 193 215 227 166 264 320 332 234 222 226 233 232 224 209 202 216 213 218 230 242 247 254 251 255 259 230 233 237 240 239 235
201 200 201 198 203 204 206 201 192 201 196 203 179 162 221 228 228 241 275 230 236 232 245 229 217 207 208 211 209 219 222 228 236 243 250 254 262 259 240 235 235 240 236
200 203 202 203 206 207 207 201 204 197 202 207 211 200 188 181 199 202 237 253 251 235 227 238 220 216 220 208 209 206 219 224 234 243 247 249 253 253 255 248 244 242 242
197 205 201 203 206 209 207 203 199 206 203 207 209 216 217 219 204 190 221 247 240 244 236 232 210 219 209 199 209 211 200 223 236 247 253 252 255 256 253 252 261 247 246
204 199 201 205 208 209 209 205 204 206 209 210 214 215 220 219 199 214 223 230 254 249 223 231 232 234 214 202 173 178 207 225 246 253 259 262 260 256 254 250 256 250 250
204 202 198 203 206 206 206 204 207 208 206 209 214 215 217 221 216 196 199 210 228 255 235 224 224 211 172 167 178 182 221 224 249 254 260 266 265 259 253 250 257 246 247
203 198 198 200 204 206 204 203 208 209 206 210 217 219 221 222 207 197 204 213 217 236 255 197 219 166 165 183 158 199 229 257 251 259 262 266 269 265 260 253 261 246 250
204 202 199 197 201 202 202 204 212 208 206 215 211 212 216 207 212 213 206 215 223 226 242 219 146 137 164 219 224 218 236 244 253 254 266 274 277 277 270 261 258 250 253
210 203 203 198 198 201 202 204 207 209 213 209 207 204 215 201 209 208 206 217 222 211 223 241 157 170 192 194 189 227 234 241 249 253 263 272 275 276 274 271 260 254 252
214 209 202 201 202 200 198 203 207 213 209 207 205 205 210 200 210 209 211 212 206 194 187 160 176 127 147 172 209 225 257 262 245 257 272 272 278 284 282 275 264 257 251
211 209 207 207 205 203 202 201 204 211 206 204 201 201 200 200 209 202 207 201 176 168 155 136 163 178 154 167 106 218 263 230 275 251 256 271 274 287 289 289 288 281 257
212 209 207 204 200 201 197 194 193 202 202 192 192 194 196 199 194 188 179 171 165 152 152 162 171 147 144 150 195 158 250 246 255 230 99 254 250 263 262 276 275 275 276
207 204 200 198 196 192 180 183 181 189 187 182 190 185 170 158 156 157 145 151 171 174 180 166 163 168 170 172 143 164 192 298 302 201 227 270 174 227 248 241 258 266 270
189 194 189 184 193 183 182 186 179 187 187 190 181 172 158 160 146 147 149 150 173 169 156 161 172 174 165 166 151 172 200 200 208 176 114 285 215 260 239 253 267 275 281
190 187 184 188 193 194 185 183 180 182 184 183 176 171 165 166 167 154 151 151 152 147 172 181 172 167 158 164 178 177 193 188 170 149 135 225 319 269 277 231 266 285 301
183 192 186 187 192 194 186 178 172 164 160 160 153 156 161 159 166 165 149 149 154 161 154 155 163 163 167 173 157 133 207 187 175 153 158 154 258 259 300 333 328 17 348
213 185 186 191 187 182 179 175 167 156 154 150 133 141 160 160 164 164 157 161 167 171 157 125 122 115 101 116 162 207 191 193 150 153 203 126 7 50 352 301 291 299 315